QPF
0.00 0.00 0.00 0.00 0.00 0.00 0.00 0.00 0.00 0.00 0.00 0.00 0.00 0.00 0.01 0.02 0.02 0.02 0.01 0.02 0.02 0.01 0.01 0.01 0.01 0.00 0.00 0.00 0.00 0.00 0.00 0.00 0.01 0.01 0.01 0.01 0.01 0.01 0.01 0.01 0.01 0.01 0.01
0.00 0.00 0.00 0.00 0.00 0.00 0.00 0.00 0.00 0.00 0.00 0.00 0.00 0.00 0.01 0.02 0.02 0.02 0.02 0.02 0.02 0.01 0.01 0.01 0.01 0.01 0.00 0.00 0.00 0.00 0.00 0.00 0.00 0.01 0.01 0.01 0.01 0.01 0.01 0.01 0.01 0.01 0.01
0.00 0.00 0.00 0.00 0.00 0.00 0.00 0.00 0.00 0.00 0.00 0.00 0.00 0.00 0.01 0.02 0.03 0.04 0.03 0.02 0.02 0.01 0.01 0.01 0.01 0.01 0.01 0.01 0.00 0.00 0.00 0.00 0.00 0.01 0.01 0.02 0.02 0.02 0.02 0.01 0.01 0.01 0.01
0.00 0.00 0.00 0.00 0.00 0.00 0.00 0.00 0.00 0.00 0.00 0.00 0.00 0.00 0.01 0.02 0.03 0.03 0.03 0.03 0.02 0.02 0.01 0.01 0.01 0.01 0.01 0.01 0.01 0.01 0.01 0.00 0.00 0.01 0.01 0.02 0.02 0.03 0.03 0.03 0.03 0.03 0.02
0.00 0.00 0.00 0.00 0.00 0.00 0.00 0.00 0.00 0.00 0.00 0.00 0.00 0.00 0.01 0.01 0.03 0.04 0.04 0.03 0.03 0.02 0.01 0.01 0.01 0.01 0.02 0.01 0.01 0.01 0.01 0.01 0.00 0.01 0.01 0.02 0.02 0.02 0.02 0.02 0.02 0.02 0.03
0.00 0.00 0.00 0.00 0.00 0.00 0.00 0.00 0.00 0.00 0.00 0.00 0.00 0.00 0.01 0.01 0.03 0.04 0.04 0.03 0.03 0.02 0.01 0.01 0.01 0.01 0.01 0.01 0.01 0.01 0.01 0.01 0.01 0.01 0.01 0.01 0.01 0.01 0.01 0.01 0.01 0.01 0.02
0.01 0.01 0.01 0.00 0.00 0.00 0.00 0.00 0.00 0.00 0.00 0.00 0.00 0.01 0.01 0.02 0.03 0.03 0.03 0.03 0.03 0.02 0.01 0.01 0.01 0.01 0.01 0.01 0.01 0.01 0.01 0.02 0.02 0.01 0.01 0.01 0.01 0.01 0.01 0.01 0.01 0.01 0.01
0.01 0.02 0.01 0.00 0.00 0.01 0.00 0.00 0.01 0.01 0.01 0.01 0.01 0.01 0.02 0.02 0.03 0.04 0.04 0.03 0.02 0.02 0.01 0.01 0.01 0.01 0.01 0.01 0.01 0.01 0.01 0.01 0.02 0.02 0.01 0.01 0.01 0.01 0.02 0.02 0.02 0.03 0.02
0.01 0.01 0.01 0.01 0.00 0.01 0.00 0.00 0.01 0.01 0.01 0.01 0.02 0.02 0.02 0.03 0.03 0.04 0.04 0.04 0.03 0.02 0.01 0.01 0.01 0.01 0.01 0.02 0.01 0.01 0.01 0.01 0.01 0.01 0.02 0.02 0.02 0.02 0.02 0.02 0.03 0.03 0.03
0.01 0.01 0.01 0.00 0.00 0.00 0.00 0.00 0.00 0.01 0.02 0.03 0.04 0.04 0.03 0.04 0.04 0.04 0.04 0.04 0.04 0.03 0.01 0.01 0.00 0.01 0.01 0.01 0.01 0.01 0.02 0.02 0.02 0.02 0.02 0.02 0.02 0.02 0.02 0.03 0.03 0.04 0.04
0.01 0.00 0.00 0.00 0.00 0.00 0.00 0.00 0.00 0.01 0.01 0.03 0.04 0.05 0.06 0.05 0.06 0.05 0.04 0.04 0.03 0.02 0.01 0.01 0.00 0.00 0.01 0.01 0.01 0.01 0.02 0.02 0.03 0.03 0.03 0.03 0.04 0.04 0.04 0.04 0.04 0.05 0.05
0.00 0.00 0.00 0.00 0.00 0.00 0.00 0.00 0.00 0.01 0.01 0.02 0.02 0.03 0.04 0.06 0.06 0.07 0.06 0.04 0.03 0.02 0.01 0.01 0.01 0.01 0.01 0.01 0.02 0.02 0.02 0.02 0.02 0.03 0.03 0.03 0.03 0.04 0.04 0.04 0.05 0.05 0.05
0.00 0.00 0.00 0.00 0.00 0.00 0.00 0.00 0.00 0.01 0.01 0.01 0.01 0.01 0.02 0.03 0.04 0.05 0.06 0.05 0.03 0.02 0.01 0.01 0.01 0.01 0.01 0.01 0.02 0.02 0.03 0.03 0.03 0.03 0.03 0.03 0.03 0.03 0.03 0.04 0.05 0.05 0.06
0.00 0.00 0.00 0.00 0.00 0.00 0.00 0.00 0.00 0.01 0.01 0.01 0.01 0.01 0.02 0.02 0.02 0.03 0.03 0.03 0.03 0.03 0.02 0.01 0.01 0.01 0.01 0.01 0.01 0.02 0.03 0.03 0.04 0.04 0.04 0.03 0.03 0.03 0.04 0.04 0.04 0.04 0.04
0.00 0.00 0.00 0.00 0.00 0.00 0.00 0.00 0.00 0.01 0.01 0.01 0.01 0.01 0.01 0.01 0.02 0.02 0.02 0.02 0.02 0.02 0.02 0.01 0.01 0.01 0.01 0.01 0.02 0.02 0.02 0.02 0.03 0.03 0.04 0.04 0.04 0.04 0.05 0.05 0.05 0.05 0.04
0.01 0.00 0.00 0.00 0.00 0.00 0.00 0.01 0.01 0.01 0.01 0.01 0.01 0.01 0.01 0.01 0.01 0.01 0.01 0.01 0.01 0.01 0.01 0.01 0.02 0.02 0.01 0.02 0.02 0.03 0.03 0.03 0.03 0.04 0.04 0.04 0.04 0.05 0.06 0.07 0.07 0.06 0.06
0.01 0.01 0.01 0.01 0.00 0.00 0.00 0.01 0.01 0.01 0.01 0.01 0.00 0.00 0.01 0.01 0.01 0.01 0.01 0.01 0.01 0.01 0.01 0.01 0.02 0.02 0.01 0.01 0.02 0.03 0.03 0.03 0.04 0.05 0.04 0.04 0.04 0.05 0.06 0.07 0.07 0.07 0.08
0.00 0.01 0.01 0.01 0.01 0.01 0.01 0.01 0.01 0.01 0.01 0.01 0.00 0.00 0.01 0.01 0.01 0.01 0.01 0.00 0.00 0.01 0.01 0.01 0.01 0.01 0.01 0.01 0.01 0.01 0.01 0.02 0.03 0.04 0.04 0.04 0.05 0.05 0.06 0.05 0.05 0.05 0.06
0.00 0.00 0.01 0.01 0.01 0.01 0.01 0.01 0.01 0.01 0.01 0.01 0.00 0.00 0.01 0.01 0.01 0.01 0.01 0.01 0.01 0.01 0.01 0.01 0.02 0.01 0.01 0.01 0.01 0.01 0.01 0.01 0.03 0.05 0.05 0.05 0.07 0.08 0.07 0.05 0.04 0.05 0.04
0.00 0.00 0.01 0.01 0.01 0.01 0.02 0.01 0.01 0.02 0.02 0.02 0.01 0.01 0.01 0.02 0.01 0.02 0.01 0.01 0.01 0.01 0.02 0.02 0.02 0.02 0.01 0.02 0.01 0.01 0.01 0.01 0.02 0.04 0.06 0.08 0.09 0.08 0.09 0.06 0.05 0.05 0.04
0.00 0.00 0.00 0.01 0.01 0.01 0.02 0.02 0.01 0.02 0.03 0.03 0.02 0.02 0.02 0.02 0.02 0.02 0.02 0.02 0.02 0.02 0.02 0.03 0.03 0.03 0.03 0.03 0.03 0.03 0.02 0.02 0.02 0.03 0.05 0.07 0.08 0.08 0.09 0.09 0.08 0.07 0.05
0.00 0.00 0.00 0.01 0.01 0.01 0.01 0.02 0.02 0.02 0.02 0.03 0.03 0.03 0.03 0.03 0.03 0.02 0.02 0.02 0.02 0.02 0.02 0.03 0.03 0.03 0.03 0.03 0.03 0.03 0.03 0.04 0.04 0.04 0.04 0.05 0.07 0.08 0.10 0.10 0.10 0.09 0.08
0.00 0.00 0.00 0.00 0.01 0.01 0.01 0.01 0.02 0.02 0.02 0.03 0.03 0.03 0.03 0.04 0.03 0.03 0.03 0.03 0.03 0.03 0.03 0.03 0.03 0.03 0.03 0.03 0.03 0.03 0.03 0.04 0.04 0.04 0.04 0.05 0.06 0.08 0.09 0.10 0.10 0.10 0.08
0.00 0.00 0.00 0.00 0.00 0.01 0.01 0.01 0.01 0.02 0.02 0.03 0.03 0.03 0.03 0.03 0.03 0.03 0.02 0.02 0.03 0.03 0.03 0.03 0.03 0.03 0.03 0.03 0.03 0.03 0.03 0.04 0.04 0.03 0.03 0.04 0.05 0.06 0.08 0.09 0.09 0.09 0.08
0.00 0.00 0.00 0.00 0.00 0.00 0.00 0.01 0.01 0.02 0.02 0.01 0.01 0.02 0.03 0.02 0.02 0.02 0.02 0.01 0.02 0.02 0.03 0.02 0.02 0.02 0.03 0.03 0.03 0.03 0.04 0.04 0.04 0.04 0.04 0.05 0.06 0.06 0.06 0.06 0.07 0.08 0.08
0.00 0.00 0.00 0.00 0.00 0.00 0.00 0.00 0.01 0.01 0.02 0.01 0.01 0.01 0.02 0.02 0.02 0.02 0.02 0.01 0.01 0.01 0.02 0.02 0.02 0.02 0.03 0.03 0.04 0.04 0.05 0.05 0.05 0.06 0.06 0.06 0.06 0.05 0.05 0.04 0.05 0.05 0.06
MSLP
1004.57 1005.15 1005.81 1006.53 1007.27 1008.04 1008.82 1009.62 1010.43 1011.25 1012.05 1012.83 1013.56 1014.21 1014.77 1015.24 1015.61 1015.92 1016.17 1016.40 1016.63 1016.86 1017.10 1017.35 1017.60 1017.84 1018.06 1018.24 1018.38 1018.48 1018.53 1018.56 1018.56 1018.53 1018.48 1018.41 1018.31 1018.17 1018.00 1017.80 1017.56 1017.31 1017.04
1003.90 1004.49 1005.15 1005.87 1006.62 1007.40 1008.21 1009.05 1009.93 1010.83 1011.71 1012.57 1013.35 1014.03 1014.60 1015.06 1015.41 1015.70 1015.94 1016.18 1016.43 1016.70 1017.00 1017.31 1017.62 1017.91 1018.16 1018.36 1018.52 1018.64 1018.73 1018.80 1018.84 1018.87 1018.88 1018.84 1018.76 1018.62 1018.41 1018.13 1017.81 1017.45 1017.09
1003.30 1003.88 1004.54 1005.24 1005.98 1006.76 1007.58 1008.46 1009.39 1010.34 1011.29 1012.20 1013.02 1013.73 1014.31 1014.76 1015.10 1015.38 1015.63 1015.88 1016.16 1016.48 1016.83 1017.20 1017.56 1017.88 1018.16 1018.39 1018.57 1018.71 1018.83 1018.95 1019.05 1019.15 1019.22 1019.24 1019.19 1019.04 1018.80 1018.47 1018.06 1017.61 1017.15
1002.85 1003.42 1004.05 1004.72 1005.42 1006.18 1007.00 1007.88 1008.83 1009.81 1010.80 1011.74 1012.59 1013.32 1013.91 1014.36 1014.71 1014.99 1015.25 1015.54 1015.86 1016.22 1016.62 1017.04 1017.43 1017.78 1018.08 1018.31 1018.51 1018.67 1018.83 1018.99 1019.16 1019.33 1019.47 1019.55 1019.53 1019.40 1019.13 1018.75 1018.27 1017.74 1017.18
1002.62 1003.16 1003.75 1004.36 1005.02 1005.72 1006.50 1007.35 1008.29 1009.27 1010.26 1011.21 1012.08 1012.81 1013.41 1013.88 1014.24 1014.55 1014.85 1015.17 1015.54 1015.95 1016.39 1016.83 1017.25 1017.61 1017.91 1018.15 1018.35 1018.53 1018.72 1018.93 1019.16 1019.39 1019.59 1019.72 1019.74 1019.62 1019.34 1018.92 1018.38 1017.77 1017.14
1002.66 1003.16 1003.68 1004.23 1004.81 1005.43 1006.13 1006.93 1007.81 1008.75 1009.72 1010.65 1011.51 1012.25 1012.86 1013.35 1013.74 1014.09 1014.43 1014.80 1015.21 1015.66 1016.13 1016.59 1017.01 1017.37 1017.67 1017.90 1018.10 1018.29 1018.51 1018.76 1019.04 1019.32 1019.57 1019.74 1019.79 1019.67 1019.38 1018.92 1018.34 1017.67 1016.98
1002.98 1003.43 1003.89 1004.35 1004.82 1005.34 1005.94 1006.63 1007.43 1008.30 1009.20 1010.09 1010.92 1011.65 1012.27 1012.77 1013.21 1013.60 1013.99 1014.41 1014.86 1015.35 1015.84 1016.31 1016.73 1017.08 1017.36 1017.59 1017.78 1017.98 1018.21 1018.49 1018.80 1019.12 1019.40 1019.59 1019.65 1019.53 1019.22 1018.74 1018.13 1017.42 1016.69
1003.58 1003.97 1004.34 1004.69 1005.05 1005.44 1005.91 1006.48 1007.16 1007.93 1008.74 1009.56 1010.34 1011.04 1011.65 1012.18 1012.64 1013.08 1013.52 1013.99 1014.48 1015.00 1015.51 1015.98 1016.39 1016.73 1017.00 1017.22 1017.41 1017.62 1017.86 1018.15 1018.47 1018.80 1019.09 1019.28 1019.33 1019.20 1018.88 1018.39 1017.76 1017.04 1016.28
1004.38 1004.71 1004.99 1005.23 1005.46 1005.72 1006.04 1006.47 1007.01 1007.65 1008.35 1009.07 1009.78 1010.43 1011.02 1011.55 1012.04 1012.52 1013.00 1013.51 1014.04 1014.58 1015.10 1015.58 1016.00 1016.33 1016.60 1016.82 1017.01 1017.22 1017.47 1017.76 1018.08 1018.40 1018.67 1018.84 1018.87 1018.73 1018.40 1017.90 1017.27 1016.55 1015.80
1005.34 1005.60 1005.78 1005.90 1006.00 1006.11 1006.30 1006.57 1006.97 1007.46 1008.03 1008.64 1009.25 1009.84 1010.39 1010.90 1011.40 1011.89 1012.41 1012.95 1013.51 1014.07 1014.62 1015.11 1015.54 1015.89 1016.16 1016.39 1016.60 1016.82 1017.07 1017.35 1017.65 1017.95 1018.18 1018.32 1018.32 1018.15 1017.81 1017.31 1016.70 1016.01 1015.28
1006.39 1006.56 1006.64 1006.65 1006.62 1006.60 1006.64 1006.77 1007.01 1007.36 1007.79 1008.27 1008.77 1009.27 1009.76 1010.24 1010.72 1011.22 1011.75 1012.31 1012.90 1013.49 1014.06 1014.58 1015.03 1015.41 1015.71 1015.96 1016.20 1016.43 1016.68 1016.95 1017.22 1017.47 1017.66 1017.75 1017.70 1017.51 1017.16 1016.68 1016.10 1015.45 1014.77
1007.47 1007.56 1007.54 1007.43 1007.28 1007.13 1007.04 1007.04 1007.14 1007.35 1007.63 1007.98 1008.36 1008.76 1009.18 1009.60 1010.05 1010.54 1011.07 1011.65 1012.25 1012.87 1013.47 1014.02 1014.50 1014.91 1015.26 1015.55 1015.81 1016.06 1016.30 1016.55 1016.79 1016.99 1017.12 1017.16 1017.07 1016.85 1016.50 1016.05 1015.51 1014.91 1014.29
1008.55 1008.55 1008.43 1008.22 1007.96 1007.71 1007.50 1007.38 1007.36 1007.43 1007.58 1007.80 1008.07 1008.36 1008.69 1009.05 1009.45 1009.91 1010.44 1011.01 1011.63 1012.26 1012.88 1013.47 1013.99 1014.44 1014.83 1015.15 1015.44 1015.70 1015.95 1016.18 1016.37 1016.52 1016.59 1016.56 1016.43 1016.19 1015.85 1015.42 1014.93 1014.40 1013.84
1009.60 1009.52 1009.31 1009.01 1008.66 1008.32 1008.02 1007.80 1007.67 1007.63 1007.67 1007.77 1007.92 1008.11 1008.35 1008.64 1008.99 1009.42 1009.92 1010.48 1011.10 1011.74 1012.38 1012.98 1013.53 1014.01 1014.43 1014.79 1015.10 1015.37 1015.60 1015.80 1015.95 1016.04 1016.05 1015.97 1015.80 1015.53 1015.19 1014.79 1014.35 1013.88 1013.39
1010.60 1010.45 1010.17 1009.80 1009.39 1008.98 1008.61 1008.32 1008.10 1007.97 1007.90 1007.90 1007.95 1008.05 1008.21 1008.43 1008.73 1009.12 1009.59 1010.13 1010.74 1011.37 1012.00 1012.61 1013.17 1013.66 1014.09 1014.46 1014.77 1015.03 1015.24 1015.40 1015.51 1015.54 1015.49 1015.37 1015.16 1014.88 1014.54 1014.16 1013.76 1013.35 1012.91
1011.54 1011.33 1011.00 1010.59 1010.13 1009.68 1009.27 1008.92 1008.64 1008.44 1008.29 1008.21 1008.17 1008.20 1008.29 1008.45 1008.71 1009.05 1009.49 1010.01 1010.58 1011.19 1011.80 1012.38 1012.92 1013.39 1013.81 1014.16 1014.45 1014.68 1014.86 1014.98 1015.04 1015.02 1014.93 1014.76 1014.52 1014.22 1013.88 1013.53 1013.16 1012.78 1012.38
1012.39 1012.15 1011.79 1011.36 1010.89 1010.42 1009.98 1009.60 1009.28 1009.02 1008.82 1008.67 1008.58 1008.54 1008.58 1008.70 1008.92 1009.23 1009.63 1010.11 1010.64 1011.20 1011.76 1012.29 1012.78 1013.20 1013.57 1013.87 1014.12 1014.32 1014.45 1014.53 1014.55 1014.49 1014.36 1014.16 1013.90 1013.58 1013.25 1012.89 1012.53 1012.17 1011.78
1013.12 1012.87 1012.51 1012.08 1011.62 1011.16 1010.72 1010.33 1009.98 1009.69 1009.44 1009.25 1009.11 1009.04 1009.04 1009.13 1009.32 1009.60 1009.97 1010.40 1010.88 1011.38 1011.86 1012.32 1012.72 1013.07 1013.36 1013.60 1013.78 1013.93 1014.02 1014.06 1014.04 1013.96 1013.81 1013.59 1013.32 1012.99 1012.65 1012.28 1011.92 1011.54 1011.15
1013.70 1013.47 1013.14 1012.74 1012.31 1011.87 1011.45 1011.06 1010.70 1010.38 1010.11 1009.88 1009.71 1009.61 1009.59 1009.66 1009.83 1010.08 1010.42 1010.80 1011.22 1011.64 1012.04 1012.40 1012.70 1012.95 1013.15 1013.31 1013.43 1013.51 1013.57 1013.58 1013.55 1013.46 1013.31 1013.09 1012.81 1012.49 1012.13 1011.74 1011.35 1010.94 1010.51
1014.15 1013.95 1013.67 1013.32 1012.93 1012.53 1012.14 1011.75 1011.39 1011.06 1010.76 1010.51 1010.32 1010.19 1010.16 1010.21 1010.36 1010.59 1010.89 1011.23 1011.58 1011.92 1012.22 1012.48 1012.68 1012.82 1012.93 1013.00 1013.05 1013.09 1013.12 1013.13 1013.10 1013.02 1012.88 1012.68 1012.41 1012.09 1011.72 1011.31 1010.87 1010.41 1009.92
1014.48 1014.32 1014.09 1013.80 1013.47 1013.11 1012.75 1012.38 1012.02 1011.68 1011.36 1011.08 1010.87 1010.72 1010.67 1010.70 1010.83 1011.04 1011.30 1011.59 1011.87 1012.13 1012.34 1012.50 1012.59 1012.64 1012.66 1012.66 1012.66 1012.67 1012.69 1012.71 1012.70 1012.66 1012.56 1012.39 1012.14 1011.82 1011.44 1010.99 1010.51 1009.99 1009.42
1014.71 1014.60 1014.42 1014.19 1013.92 1013.61 1013.28 1012.93 1012.57 1012.22 1011.88 1011.58 1011.34 1011.17 1011.09 1011.10 1011.20 1011.37 1011.59 1011.83 1012.05 1012.23 1012.36 1012.42 1012.43 1012.40 1012.35 1012.30 1012.27 1012.27 1012.29 1012.34 1012.38 1012.38 1012.33 1012.21 1011.99 1011.68 1011.28 1010.81 1010.27 1009.68 1009.04
1014.89 1014.82 1014.69 1014.51 1014.29 1014.04 1013.74 1013.40 1013.04 1012.68 1012.32 1011.99 1011.71 1011.52 1011.40 1011.38 1011.45 1011.58 1011.75 1011.93 1012.09 1012.20 1012.26 1012.24 1012.18 1012.09 1011.99 1011.91 1011.87 1011.88 1011.94 1012.02 1012.11 1012.18 1012.19 1012.11 1011.93 1011.64 1011.24 1010.73 1010.14 1009.48 1008.77
1015.04 1014.99 1014.90 1014.77 1014.59 1014.37 1014.10 1013.78 1013.43 1013.05 1012.67 1012.32 1012.01 1011.78 1011.63 1011.57 1011.59 1011.68 1011.80 1011.92 1012.02 1012.07 1012.05 1011.99 1011.87 1011.74 1011.61 1011.52 1011.49 1011.52 1011.62 1011.75 1011.90 1012.03 1012.10 1012.07 1011.93 1011.66 1011.25 1010.72 1010.09 1009.38 1008.60
1015.16 1015.11 1015.04 1014.94 1014.79 1014.60 1014.36 1014.06 1013.71 1013.33 1012.94 1012.56 1012.23 1011.97 1011.79 1011.68 1011.66 1011.69 1011.76 1011.82 1011.86 1011.85 1011.79 1011.68 1011.53 1011.37 1011.24 1011.15 1011.14 1011.20 1011.33 1011.52 1011.72 1011.91 1012.03 1012.04 1011.93 1011.68 1011.27 1010.73 1010.07 1009.31 1008.50
1015.23 1015.16 1015.09 1014.99 1014.87 1014.70 1014.47 1014.19 1013.86 1013.49 1013.10 1012.73 1012.38 1012.10 1011.89 1011.75 1011.68 1011.66 1011.67 1011.68 1011.67 1011.61 1011.50 1011.36 1011.19 1011.02 1010.89 1010.82 1010.82 1010.91 1011.08 1011.31 1011.55 1011.77 1011.93 1011.98 1011.90 1011.66 1011.25 1010.70 1010.03 1009.26 1008.42
Thickness
5657 5657 5656 5655 5652 5649 5647 5645 5642 5641 5640 5638 5635 5634 5633 5634 5634 5634 5634 5634 5633 5633 5632 5631 5630 5629 5628 5626 5625 5624 5623 5622 5621 5620 5622 5625 5627 5628 5629 5628 5628 5628 5627
5649 5649 5648 5646 5644 5642 5639 5637 5635 5634 5633 5631 5629 5627 5626 5626 5626 5626 5626 5625 5625 5625 5624 5623 5621 5620 5618 5617 5615 5614 5611 5610 5609 5606 5605 5608 5612 5616 5618 5617 5617 5617 5617
5641 5640 5639 5637 5635 5633 5631 5631 5628 5626 5625 5623 5621 5620 5617 5616 5615 5615 5616 5617 5617 5616 5615 5614 5612 5611 5609 5607 5605 5603 5601 5598 5597 5594 5591 5590 5594 5599 5605 5606 5606 5605 5605
5634 5632 5631 5628 5626 5624 5623 5621 5620 5618 5617 5615 5613 5611 5608 5606 5607 5608 5607 5608 5608 5607 5606 5605 5603 5601 5600 5597 5595 5594 5591 5588 5585 5583 5582 5581 5581 5580 5586 5592 5593 5592 5593
5624 5623 5621 5619 5617 5615 5613 5612 5610 5609 5607 5606 5604 5602 5600 5599 5599 5599 5598 5598 5598 5597 5597 5595 5594 5592 5590 5588 5586 5583 5581 5578 5575 5573 5571 5569 5569 5569 5568 5574 5579 5579 5580
5614 5613 5611 5609 5606 5604 5602 5601 5599 5598 5597 5595 5594 5592 5591 5590 5589 5588 5587 5587 5587 5587 5587 5585 5584 5582 5580 5578 5575 5573 5571 5568 5566 5563 5561 5558 5556 5556 5555 5558 5563 5565 5568
5601 5600 5598 5596 5594 5593 5591 5590 5588 5586 5585 5584 5583 5582 5581 5580 5579 5578 5578 5577 5577 5576 5576 5575 5573 5571 5569 5567 5565 5563 5560 5558 5555 5553 5551 5549 5548 5546 5545 5544 5547 5551 5555
5588 5587 5586 5584 5583 5581 5579 5578 5576 5575 5574 5573 5572 5572 5571 5570 5569 5568 5567 5567 5567 5567 5566 5564 5563 5561 5559 5557 5554 5552 5550 5548 5545 5544 5541 5539 5538 5536 5534 5533 5532 5535 5542
5576 5574 5574 5573 5571 5568 5567 5565 5564 5564 5563 5562 5562 5561 5560 5559 5558 5557 5556 5556 5557 5557 5556 5554 5552 5551 5549 5546 5544 5542 5540 5537 5535 5533 5531 5529 5529 5527 5525 5523 5520 5518 5523
5562 5561 5560 5560 5558 5557 5555 5554 5553 5552 5551 5551 5550 5549 5548 5547 5546 5545 5545 5545 5546 5545 5544 5543 5542 5540 5538 5536 5534 5532 5530 5527 5526 5523 5521 5520 5519 5517 5515 5513 5511 5510 5510
5549 5547 5547 5547 5546 5545 5543 5542 5541 5541 5540 5538 5538 5536 5535 5535 5534 5534 5534 5534 5534 5534 5533 5532 5531 5529 5527 5525 5522 5521 5519 5517 5515 5513 5512 5511 5509 5508 5506 5505 5503 5501 5500
5536 5535 5535 5534 5533 5532 5531 5530 5529 5528 5527 5526 5526 5524 5524 5523 5523 5523 5522 5522 5523 5523 5522 5521 5520 5518 5516 5514 5511 5508 5507 5505 5504 5503 5501 5501 5499 5498 5497 5496 5495 5493 5492
5523 5522 5522 5522 5521 5520 5519 5518 5517 5516 5515 5515 5514 5512 5512 5511 5511 5511 5511 5511 5512 5512 5511 5509 5508 5506 5504 5502 5500 5498 5496 5494 5492 5491 5491 5491 5490 5489 5489 5488 5487 5486 5485
5508 5508 5507 5508 5508 5508 5507 5506 5505 5504 5504 5503 5502 5502 5501 5501 5501 5501 5501 5501 5501 5500 5499 5498 5496 5495 5493 5491 5489 5487 5485 5483 5483 5482 5481 5482 5481 5481 5480 5480 5480 5479 5477
5494 5494 5493 5493 5494 5494 5494 5494 5493 5493 5493 5492 5492 5491 5491 5491 5490 5490 5490 5490 5489 5489 5488 5487 5485 5483 5482 5481 5479 5478 5476 5475 5474 5474 5473 5473 5473 5474 5473 5473 5473 5471 5469
5480 5479 5479 5479 5480 5480 5481 5481 5481 5481 5482 5482 5482 5482 5481 5481 5480 5479 5479 5479 5478 5477 5476 5476 5475 5473 5473 5472 5471 5469 5468 5467 5466 5466 5466 5465 5466 5467 5467 5467 5466 5464 5462
5465 5464 5465 5465 5466 5466 5468 5469 5470 5471 5471 5471 5471 5471 5470 5470 5469 5468 5468 5467 5466 5466 5465 5465 5464 5464 5463 5462 5462 5461 5460 5459 5458 5458 5458 5458 5459 5459 5459 5459 5459 5458 5457
5451 5450 5450 5451 5453 5454 5456 5457 5458 5459 5460 5459 5459 5459 5458 5458 5457 5457 5456 5455 5455 5455 5455 5455 5455 5454 5454 5454 5454 5453 5452 5451 5450 5450 5449 5450 5451 5451 5450 5451 5452 5452 5451
5437 5437 5437 5439 5441 5442 5443 5445 5446 5447 5447 5447 5447 5447 5447 5446 5446 5445 5445 5445 5445 5446 5445 5445 5445 5445 5445 5445 5445 5444 5443 5443 5443 5443 5442 5443 5443 5444 5444 5444 5445 5445 5445
5425 5425 5425 5426 5428 5429 5430 5431 5433 5433 5434 5435 5435 5436 5436 5436 5435 5435 5434 5435 5435 5435 5436 5436 5436 5436 5436 5436 5436 5435 5434 5435 5435 5436 5436 5436 5437 5438 5437 5436 5437 5436 5436
5413 5413 5413 5413 5414 5416 5417 5418 5419 5420 5421 5423 5424 5425 5425 5425 5425 5425 5425 5424 5425 5425 5426 5426 5427 5427 5427 5427 5427 5427 5426 5427 5427 5428 5428 5429 5429 5430 5431 5430 5429 5429 5428
5401 5401 5401 5401 5402 5403 5405 5405 5405 5407 5410 5411 5413 5414 5415 5416 5416 5415 5415 5415 5415 5416 5416 5417 5418 5418 5418 5419 5419 5419 5418 5419 5419 5420 5420 5420 5421 5422 5422 5422 5422 5422 5422
5388 5389 5390 5390 5390 5391 5392 5392 5393 5396 5398 5399 5401 5403 5404 5405 5406 5405 5405 5406 5406 5406 5407 5408 5408 5409 5410 5410 5410 5410 5411 5411 5411 5411 5412 5412 5413 5413 5413 5414 5414 5414 5413
5376 5377 5378 5378 5379 5380 5381 5381 5383 5385 5387 5388 5390 5392 5393 5395 5396 5397 5397 5397 5397 5397 5398 5399 5399 5400 5401 5401 5401 5401 5402 5403 5403 5403 5404 5405 5405 5404 5405 5405 5405 5405 5405
5364 5365 5366 5367 5368 5370 5371 5372 5373 5375 5376 5378 5380 5381 5383 5384 5386 5387 5387 5388 5389 5388 5389 5390 5390 5391 5392 5394 5393 5393 5394 5394 5394 5394 5395 5396 5396 5395 5396 5397 5397 5397 5397
5353 5353 5355 5356 5358 5359 5360 5362 5363 5365 5367 5369 5370 5371 5373 5374 5376 5377 5378 5379 5380 5382 5383 5383 5383 5384 5385 5387 5387 5388 5389 5389 5388 5387 5387 5388 5387 5387 5388 5389 5390 5390 5390